Location: La Fredeussais
(48.1780°N, 1.3980°W)
Time: 18:35:17
(UTC+00:00)

SeaSat 1 - Pass Details

Date: 09 May 2021
Orbit: 744 x 747 km, 108.0° (Epoch: 15 June)

Event Time Altitude Azimuth Distance (km) Brightness Sun altitude
Rises 22:49:56 0° 44° (NE) 3,200 6.1 -22.3°
Reaches altitude 10° 22:53:11 10° 67° (ENE) 2,270 5.0 -22.4°
Enters shadow 22:55:08 15° 90° (E) 1,958 4.4 -22.5°
